MP3/FLAC

‹ prev 2018-01-18 next › 800 release(s) · 64,92 GB · filter: day
Release Group Size Files Date ↓
Palmbomen_II-IAO_Industries-(BIS031S2)-WEB-2018-ENSLAVE ENSLAVE 11,87 MB 4 2018-01-18
Redshape-Blink-(NONPLUS044)-WEB-2017-ENSLAVE ENSLAVE 36,63 MB 5 2018-01-18
Contraversy-Hybrid_Junglist-WEB-2018-2FAST4U 2FAST4U 11,10 MB 5 2018-01-18
Zippy-All_Like_Before-WEB-2018-2FAST4U 2FAST4U 6,92 MB 5 2018-01-18
The_Smandropz-Mic_Miller-WEB-2018-2FAST4U 2FAST4U 8,78 MB 4 2018-01-18
Temporary_Hero-Man_On_Your_Mind-WEB-2018-2FAST4U 2FAST4U 9,16 MB 5 2018-01-18
DJ_Violette-Coming_Together-WEB-2018-2FAST4U 2FAST4U 14,94 MB 5 2018-01-18
Dop-The_Dying_Night-WEB-2018-2FAST4U 2FAST4U 13,88 MB 5 2018-01-18
Deloops-Ok_Without_You-WEB-2018-2FAST4U 2FAST4U 9,97 MB 5 2018-01-18
Jo_Paciello-Old_School_On_Da_Dance_Floor-WEB-2018-2FAST4U 2FAST4U 12,70 MB 5 2018-01-18
Charles_Lloyd_New_Quartet-Passin_Thru-CD-FLAC-2017-NBFLAC NBFLAC 433,35 MB 10 2018-01-18
Bloodclot-Up_In_Arms-CD-FLAC-2017-NBFLAC NBFLAC 229,65 MB 15 2018-01-18
Phil_Tomorrow-King_Session_(Continuous_Mix)-WEB-2018-2FAST4U 2FAST4U 145,79 MB 5 2018-01-18
Rex_Brown-Smoke_On_This-CD-FLAC-2017-NBFLAC NBFLAC 309,50 MB 14 2018-01-18
Comeback_Kid-Outsider-CD-FLAC-2017-NBFLAC NBFLAC 275,75 MB 16 2018-01-18
Iron_And_Wine-Beast_Epic-CD-FLAC-2017-NBFLAC NBFLAC 214,89 MB 14 2018-01-18
Batmobile-Brand_New_Blisters-CD-FLAC-2017-NBFLAC NBFLAC 220,23 MB 18 2018-01-18
Useless-Neglect-EP-WEB-2017-ENTiTLED ENTiTLED 59,90 MB 8 2018-01-18
Sasha_Magerova-Thank_You-WEB-2018-2FAST4U 2FAST4U 9,30 MB 5 2018-01-18
Klaptra-Mansiaugheter-WEB-2018-2FAST4U 2FAST4U 7,43 MB 5 2018-01-18
Emulate-The_Only_Way_Is_Down-WEB-2018-2FAST4U 2FAST4U 14,68 MB 5 2018-01-18
DJ_Chris_Parker-Money-WEB-2018-2FAST4U 2FAST4U 7,28 MB 4 2018-01-18
Ukiyo-Something_Like_This_(Feat_Feelds)-WEB-2018-2FAST4U 2FAST4U 6,82 MB 4 2018-01-18
Ok_Sure-Sorry_(Feat_Tanzer)-WEB-2018-2FAST4U 2FAST4U 10,23 MB 5 2018-01-18
Nellyelson-Vivir_La_Vida-WEB-2018-2FAST4U 2FAST4U 6,95 MB 5 2018-01-18
Zoeen__Doublev-Heavy_Heart_(Feat_Krysta_Youngs)_Zoeen_Mix-WEB-2018-2FAST4U 2FAST4U 9,03 MB 5 2018-01-18
Dasko-Dreaming_Out_Loud_(Feat_Stephano_Prunebelli)-WEB-2018-2FAST4U 2FAST4U 8,26 MB 5 2018-01-18
Jace_W-Warrior_(Feat_Sincera)-WEB-2018-2FAST4U 2FAST4U 12,27 MB 5 2018-01-18
Marnes-Kiara-WEB-2018-2FAST4U 2FAST4U 16,54 MB 4 2018-01-18
Martin_Nonstatic_-_Ligand-2017-gEm gEm 126,85 MB 5 2018-01-18
Aes_Dana_-_Pollen-REMASTERED-2017-gEm gEm 134,81 MB 14 2018-01-18
Roos-I_Fail-WEB-2018-2FAST4U 2FAST4U 2,95 MB 4 2018-01-18
Superlover-Candy-WEB-2018-2FAST4U 2FAST4U 12,30 MB 4 2018-01-18
Omnivox_-_Surrender-2018-gEm gEm 139,76 MB 13 2018-01-18
J_Caprice-Sober_Jazz-WEB-2018-2FAST4U 2FAST4U 11,76 MB 4 2018-01-18
Hounds-Scorn-WEB-2018-2FAST4U 2FAST4U 8,36 MB 5 2018-01-18
Manuel_Kane-No_Love-WEB-2018-2FAST4U 2FAST4U 14,58 MB 5 2018-01-18
Adyoro-Nakula_X_Sadewa-WEB-2018-2FAST4U 2FAST4U 13,26 MB 5 2018-01-18
Zaiga-9_Lives-WEB-2018-2FAST4U 2FAST4U 14,52 MB 5 2018-01-18
Amid_the_Barren_and_Lost-Shadow_Self_Psalms-WEB-2018-ENTiTLED ENTiTLED 110,86 MB 14 2018-01-18
Atra_Vetosus-Live_at_the_Royal_Oak-WEB-2018-ENTiTLED ENTiTLED 74,59 MB 7 2018-01-18
Barren_Womb-Drive-Thru_Liquor_Store-SINGLE-WEB-2018-ENTiTLED ENTiTLED 8,29 MB 4 2018-01-18
Basilica-Orbit_Has_Ceased-WEB-2018-ENTiTLED ENTiTLED 41,41 MB 8 2018-01-18
Armin_van_Buuren_-_A_State_of_Trance_849-SAT-01-18-2018-TALiON TALiON 221,52 MB 4 2018-01-18
Extinction_AD-Age_of_Revenge-SINGLE-WEB-2018-ENTiTLED ENTiTLED 7,16 MB 4 2018-01-18
HYVMINE-Earthquake-WEB-2017-ENTiTLED ENTiTLED 97,56 MB 12 2018-01-18
Human_Waste-Aesthetics_of_Disgust-WEB-2018-ENTiTLED ENTiTLED 91,33 MB 14 2018-01-18
Adrian_Zenith-Positive-WEB-2018-2FAST4U 2FAST4U 13,90 MB 4 2018-01-18
Katabasis-Dreams_of_Dying_Remedies-EP-WEB-2018-ENTiTLED ENTiTLED 77,29 MB 10 2018-01-18
Kuromi-Kuromi-WEB-2018-ENTiTLED ENTiTLED 41,39 MB 16 2018-01-18